Location: Tamazert
(32.6352°N, 5.2072°W)
Time: 04:18:24
(UTC+00:00)

Vanguard 1 Rocket - Pass Details

Date: 14 October 2022
Orbit: 650 x 4225 km, 34.3° (Epoch: 05 December)

Event Time Altitude Azimuth Distance (km) Brightness Sun altitude
Rises 22:29:13 0° 288° (WNW) 7,865 12.6 -56.9°
Reaches altitude 10° 22:35:20 10° 286° (WNW) 6,392 12.0 -57.8°
Enters shadow 22:46:17 37° 272° (W) 3,575 10.3 -59.4°
Maximum altitude 22:52:51 59° 213° (SSW) 2,319 - -60.3°
Drops below altitude 10° 23:01:42 10° 135° (SE) 3,414 - -61.5°
Sets 23:03:58 0° 131° (SE) 4,093 - -61.8°
